| time (UTC) | temp F | wind direction | speed MPH | gust MPH | rain 1hr in | rain 24hr in | rain mn in | humidity % | barometer mb |
| 20260504182010 | 81 | 195 | 6.0 | 10.0 | 0.00 | 0.00 | 0.00 | 62 | 1012.3 |
| 20260504181509 | 81 | 201 | 11.0 | 15.0 | 0.00 | 0.00 | 0.00 | 60 | 1012.5 |
| 20260504181011 | 81 | 200 | 9.0 | 13.0 | 0.00 | 0.00 | 0.00 | 60 | 1012.6 |
| 20260504180510 | 82 | 194 | 8.0 | 12.0 | 0.00 | 0.00 | 0.00 | 59 | 1012.6 |
| 20260504180010 | 82 | 178 | 9.0 | 14.0 | 0.00 | 0.00 | 0.00 | 59 | 1012.5 |
| 20260504175509 | 82 | 200 | 9.0 | 15.0 | 0.00 | 0.00 | 0.00 | 58 | 1012.5 |
| 20260504175010 | 81 | 212 | 7.0 | 13.0 | 0.00 | 0.00 | 0.00 | 60 | 1012.6 |
| 20260504174509 | 82 | 165 | 7.0 | 13.0 | 0.00 | 0.00 | 0.00 | 59 | 1012.6 |
| 20260504173510 | 81 | 188 | 11.0 | 15.0 | 0.00 | 0.00 | 0.00 | 61 | 1012.8 |
| 20260504173010 | 81 | 209 | 12.0 | 15.0 | 0.00 | 0.00 | 0.00 | 61 | 1012.8 |
| 20260504172510 | 81 | 194 | 9.0 | 14.0 | 0.00 | 0.00 | 0.00 | 62 | 1012.9 |
| 20260504172009 | 80 | 191 | 10.0 | 14.0 | 0.00 | 0.00 | 0.00 | 63 | 1013.0 |
| 20260504171510 | 81 | 202 | 10.0 | 14.0 | 0.00 | 0.00 | 0.00 | 62 | 1013.1 |
| 20260504171010 | 81 | 195 | 12.0 | 18.0 | 0.00 | 0.00 | 0.00 | 61 | 1012.9 |
| 20260504151010 | 78 | 209 | 11.0 | 20.0 | 0.00 | 0.00 | 0.00 | 66 | 1013.9 |
| 20260504150510 | 78 | 169 | 7.0 | 13.0 | 0.00 | 0.00 | 0.00 | 70 | 1013.9 |
| 20260504140509 | 73 | 172 | 7.0 | 12.0 | 0.00 | 0.00 | 0.00 | 78 | 1013.9 |
| 20260504130510 | 68 | 173 | 6.0 | 8.0 | 0.00 | 0.00 | 0.00 | 88 | 1013.6 |
| 20260504100510 | 64 | 170 | 5.0 | 7.0 | 0.00 | 0.00 | 0.00 | 88 | 1014.0 |
| 20260504081009 | 65 | 163 | 5.0 | 7.0 | 0.00 | 0.00 | 0.00 | 83 | 1014.7 |
| 20260504080509 | 66 | 160 | 6.0 | 7.0 | 0.00 | 0.00 | 0.00 | 83 | 1014.8 |
| 20260504050510 | 67 | 161 | 6.0 | 9.0 | 0.00 | 0.00 | 0.00 | 78 | 1017.0 |
| 20260504050009 | 67 | 160 | 6.0 | 8.0 | 0.00 | 0.00 | 0.00 | 78 | 1017.0 |
| 20260504045508 | 67 | 163 | 6.0 | 7.0 | 0.00 | 0.00 | 0.00 | 78 | 1017.1 |
| 20260504045009 | 67 | 159 | 6.0 | 8.0 | 0.00 | 0.00 | 0.00 | 78 | 1017.1 |
| 20260504044508 | 67 | 159 | 6.0 | 7.0 | 0.00 | 0.00 | 0.00 | 78 | 1017.1 |
| 20260504044009 | 67 | 158 | 5.0 | 7.0 | 0.00 | 0.00 | 0.00 | 77 | 1017.2 |
| 20260504043509 | 67 | 161 | 5.0 | 7.0 | 0.00 | 0.00 | 0.00 | 76 | 1017.3 |
| 20260504043009 | 68 | 162 | 6.0 | 7.0 | 0.00 | 0.00 | 0.00 | 76 | 1017.5 |
| 20260504042508 | 68 | 164 | 5.0 | 7.0 | 0.00 | 0.00 | 0.00 | 76 | 1017.7 |
| 20260504041509 | 68 | 170 | 5.0 | 6.0 | 0.00 | 0.00 | 0.00 | 75 | 1017.8 |
| 20260504041009 | 68 | 168 | 5.0 | 6.0 | 0.00 | 0.00 | 0.00 | 74 | 1017.9 |
| 20260504040510 | 69 | 170 | 3.0 | 6.0 | 0.00 | 0.00 | 0.00 | 74 | 1017.9 |
| 20260504040009 | 69 | 168 | 5.0 | 7.0 | 0.00 | 0.00 | 0.00 | 73 | 1017.8 |
| 20260504035508 | 69 | 161 | 6.0 | 8.0 | 0.00 | 0.00 | 0.00 | 73 | 1017.8 |
| 20260504035009 | 69 | 164 | 5.0 | 7.0 | 0.00 | 0.00 | 0.00 | 73 | 1017.7 |
| 20260504034509 | 69 | 180 | 4.0 | 7.0 | 0.00 | 0.00 | 0.00 | 73 | 1017.7 |
| 20260504034009 | 69 | 169 | 5.0 | 9.0 | 0.00 | 0.00 | 0.00 | 73 | 1017.6 |
| 20260504033509 | 69 | 169 | 6.0 | 8.0 | 0.00 | 0.00 | 0.00 | 73 | 1017.5 |
| 20260504033010 | 69 | 165 | 6.0 | 9.0 | 0.00 | 0.00 | 0.00 | 73 | 1017.5 |
| 20260504032509 | 69 | 167 | 6.0 | 9.0 | 0.00 | 0.00 | 0.00 | 73 | 1017.5 |
| 20260504032009 | 69 | 164 | 5.0 | 8.0 | 0.00 | 0.00 | 0.00 | 73 | 1017.5 |
| 20260504031509 | 69 | 163 | 6.0 | 8.0 | 0.00 | 0.00 | 0.00 | 73 | 1017.4 |
| 20260504031009 | 69 | 158 | 7.0 | 8.0 | 0.00 | 0.00 | 0.00 | 73 | 1017.4 |
| 20260504030509 | 69 | 160 | 6.0 | 7.0 | 0.00 | 0.00 | 0.00 | 73 | 1017.5 |
| 20260504025008 | 69 | 157 | 6.0 | 8.0 | 0.00 | 0.00 | 0.00 | 72 | 1017.4 |
| 20260504024509 | 70 | 155 | 6.0 | 9.0 | 0.00 | 0.00 | 0.00 | 71 | 1017.4 |
| 20260504024009 | 70 | 153 | 7.0 | 9.0 | 0.00 | 0.00 | 0.00 | 71 | 1017.3 |
| 20260504023009 | 70 | 153 | 7.0 | 10.0 | 0.00 | 0.00 | 0.00 | 70 | 1017.4 |
| 20260504022509 | 70 | 153 | 8.0 | 10.0 | 0.00 | 0.00 | 0.00 | 70 | 1017.4 |
| 20260504022009 | 70 | 148 | 8.0 | 12.0 | 0.00 | 0.00 | 0.00 | 69 | 1017.3 |
| 20260504021509 | 71 | 150 | 9.0 | 12.0 | 0.00 | 0.00 | 0.00 | 69 | 1017.3 |
| 20260504021009 | 71 | 155 | 8.0 | 12.0 | 0.00 | 0.00 | 0.00 | 68 | 1017.2 |
| 20260504020509 | 71 | 152 | 8.0 | 12.0 | 0.00 | 0.00 | 0.00 | 69 | 1017.2 |
| 20260504020009 | 71 | 150 | 7.0 | 12.0 | 0.00 | 0.00 | 0.00 | 68 | 1017.3 |
| 20260504015508 | 71 | 150 | 8.0 | 14.0 | 0.00 | 0.00 | 0.00 | 68 | 1017.2 |
| 20260504015009 | 71 | 151 | 9.0 | 12.0 | 0.00 | 0.00 | 0.00 | 68 | 1017.1 |
| 20260504014009 | 71 | 147 | 7.0 | 10.0 | 0.00 | 0.00 | 0.00 | 67 | 1016.9 |
| 20260504013509 | 72 | 151 | 10.0 | 13.0 | 0.00 | 0.00 | 0.00 | 66 | 1016.9 |
| 20260504013008 | 72 | 152 | 9.0 | 13.0 | 0.00 | 0.00 | 0.00 | 65 | 1016.8 |
| 20260504012508 | 72 | 150 | 9.0 | 13.0 | 0.00 | 0.00 | 0.00 | 64 | 1016.7 |
| 20260504012009 | 72 | 150 | 9.0 | 14.0 | 0.00 | 0.00 | 0.00 | 63 | 1016.7 |
| 20260504011508 | 73 | 149 | 10.0 | 14.0 | 0.00 | 0.00 | 0.00 | 63 | 1016.7 |
| 20260504011009 | 73 | 145 | 12.0 | 15.0 | 0.00 | 0.00 | 0.00 | 62 | 1016.7 |
| 20260504010009 | 73 | 147 | 10.0 | 16.0 | 0.00 | 0.00 | 0.00 | 61 | 1016.7 |
| 20260504005509 | 74 | 143 | 12.0 | 16.0 | 0.00 | 0.00 | 0.00 | 60 | 1016.5 |
| 20260504005009 | 74 | 144 | 9.0 | 17.0 | 0.00 | 0.00 | 0.00 | 59 | 1016.5 |
| 20260504004510 | 74 | 148 | 12.0 | 16.0 | 0.00 | 0.00 | 0.00 | 58 | 1016.5 |
| 20260504003509 | 75 | 151 | 12.0 | 16.0 | 0.00 | 0.00 | 0.00 | 56 | 1016.4 |
| 20260504003008 | 75 | 151 | 11.0 | 16.0 | 0.00 | 0.00 | 0.00 | 56 | 1016.6 |
| 20260504001509 | 76 | 150 | 10.0 | 16.0 | 0.00 | 0.00 | 0.00 | 53 | 1016.9 |
| 20260504001009 | 76 | 141 | 11.0 | 16.0 | 0.00 | 0.00 | 0.00 | 52 | 1016.9 |
| 20260504000508 | 76 | 138 | 10.0 | 15.0 | 0.00 | 0.00 | 0.00 | 52 | 1016.9 |
| 20260504000009 | 76 | 148 | 10.0 | 16.0 | 0.00 | 0.00 | 0.00 | 50 | 1016.9 |
| 20260503235510 | 77 | 136 | 10.0 | 15.0 | 0.00 | 0.00 | 0.00 | 49 | 1016.7 |
| 20260503235009 | 77 | 147 | 12.0 | 15.0 | 0.00 | 0.00 | 0.00 | 48 | 1016.7 |
| 20260503234009 | 77 | 140 | 9.0 | 14.0 | 0.00 | 0.00 | 0.00 | 48 | 1016.8 |
| 20260503233509 | 77 | 151 | 10.0 | 14.0 | 0.00 | 0.00 | 0.00 | 47 | 1016.8 |
| 20260503233009 | 77 | 135 | 11.0 | 15.0 | 0.00 | 0.00 | 0.00 | 48 | 1016.7 |
| 20260503232509 | 77 | 147 | 11.0 | 15.0 | 0.00 | 0.00 | 0.00 | 48 | 1016.8 |
| 20260503232009 | 78 | 131 | 10.0 | 17.0 | 0.00 | 0.00 | 0.00 | 49 | 1016.6 |
| 20260503231511 | 78 | 140 | 12.0 | 18.0 | 0.00 | 0.00 | 0.00 | 48 | 1016.7 |
| 20260503231009 | 78 | 142 | 12.0 | 17.0 | 0.00 | 0.00 | 0.00 | 48 | 1016.8 |
| 20260503230509 | 78 | 132 | 9.0 | 13.0 | 0.00 | 0.00 | 0.00 | 48 | 1016.9 |
| 20260503230008 | 78 | 115 | 11.0 | 17.0 | 0.00 | 0.00 | 0.00 | 47 | 1017.0 |
| 20260503225509 | 78 | 146 | 11.0 | 16.0 | 0.00 | 0.00 | 0.00 | 46 | 1017.0 |
| 20260503224508 | 79 | 152 | 8.0 | 16.0 | 0.00 | 0.00 | 0.00 | 47 | 1017.1 |
| 20260503224009 | 79 | 149 | 10.0 | 16.0 | 0.00 | 0.00 | 0.00 | 46 | 1017.1 |
| 20260503223509 | 79 | 136 | 9.0 | 14.0 | 0.00 | 0.00 | 0.00 | 47 | 1017.1 |
| 20260503223009 | 79 | 148 | 12.0 | 16.0 | 0.00 | 0.00 | 0.00 | 46 | 1017.1 |
| 20260503222508 | 79 | 157 | 9.0 | 13.0 | 0.00 | 0.00 | 0.00 | 47 | 1017.3 |
| 20260503222009 | 79 | 145 | 12.0 | 16.0 | 0.00 | 0.00 | 0.00 | 45 | 1017.4 |
| 20260503221508 | 79 | 153 | 10.0 | 16.0 | 0.00 | 0.00 | 0.00 | 45 | 1017.4 |
| 20260503221008 | 79 | 137 | 12.0 | 17.0 | 0.00 | 0.00 | 0.00 | 46 | 1017.2 |
| 20260503220509 | 79 | 146 | 12.0 | 16.0 | 0.00 | 0.00 | 0.00 | 46 | 1017.2 |
| 20260503220009 | 80 | 140 | 12.0 | 18.0 | 0.00 | 0.00 | 0.00 | 45 | 1017.2 |
| 20260503215509 | 79 | 141 | 10.0 | 16.0 | 0.00 | 0.00 | 0.00 | 45 | 1017.3 |
| 20260503215009 | 80 | 143 | 9.0 | 14.0 | 0.00 | 0.00 | 0.00 | 44 | 1017.6 |
| 20260503214508 | 80 | 127 | 9.0 | 15.0 | 0.00 | 0.00 | 0.00 | 45 | 1017.6 |
| 20260503214008 | 80 | 135 | 10.0 | 13.0 | 0.00 | 0.00 | 0.00 | 45 | 1017.8 |
| 20260503213509 | 80 | 181 | 9.0 | 16.0 | 0.00 | 0.00 | 0.00 | 45 | 1017.8 |
| 20260503213009 | 80 | 167 | 7.0 | 17.0 | 0.00 | 0.00 | 0.00 | 47 | 1017.9 |
| 20260503212509 | 80 | 149 | 9.0 | 15.0 | 0.00 | 0.00 | 0.00 | 47 | 1018.0 |
| 20260503212008 | 80 | 151 | 11.0 | 17.0 | 0.00 | 0.00 | 0.00 | 48 | 1018.1 |
| 20260503211509 | 80 | 153 | 9.0 | 14.0 | 0.00 | 0.00 | 0.00 | 46 | 1018.4 |
| 20260503211008 | 81 | 141 | 8.0 | 14.0 | 0.00 | 0.00 | 0.00 | 45 | 1018.4 |
| 20260503210509 | 81 | 167 | 8.0 | 14.0 | 0.00 | 0.00 | 0.00 | 47 | 1018.5 |
| 20260503210009 | 80 | 134 | 10.0 | 20.0 | 0.00 | 0.00 | 0.00 | 44 | 1018.5 |
| 20260503205509 | 80 | 188 | 6.0 | 10.0 | 0.00 | 0.00 | 0.00 | 47 | 1018.6 |
| 20260503205009 | 79 | 164 | 7.0 | 17.0 | 0.00 | 0.00 | 0.00 | 47 | 1018.7 |
| 20260503204509 | 79 | 136 | 10.0 | 17.0 | 0.00 | 0.00 | 0.00 | 48 | 1018.7 |
| 20260503204009 | 79 | 137 | 10.0 | 18.0 | 0.00 | 0.00 | 0.00 | 48 | 1018.7 |
| 20260503203010 | 80 | 141 | 10.0 | 15.0 | 0.00 | 0.00 | 0.00 | 45 | 1018.9 |
| 20260503202509 | 80 | 192 | 3.0 | 10.0 | 0.00 | 0.00 | 0.00 | 43 | 1018.9 |
| 20260503202008 | 80 | 143 | 10.0 | 15.0 | 0.00 | 0.00 | 0.00 | 42 | 1019.0 |
| 20260503201509 | 80 | 150 | 8.0 | 14.0 | 0.00 | 0.00 | 0.00 | 45 | 1019.1 |
| 20260503201008 | 80 | 155 | 10.0 | 14.0 | 0.00 | 0.00 | 0.00 | 45 | 1019.2 |
| 20260503200509 | 80 | 154 | 10.0 | 16.0 | 0.00 | 0.00 | 0.00 | 43 | 1019.2 |
| 20260503195508 | 80 | 125 | 6.0 | 15.0 | 0.00 | 0.00 | 0.00 | 42 | 1019.3 |
| 20260503195008 | 80 | 147 | 9.0 | 14.0 | 0.00 | 0.00 | 0.00 | 43 | 1019.4 |
| 20260503194009 | 80 | 134 | 9.0 | 14.0 | 0.00 | 0.00 | 0.00 | 44 | 1019.6 |
| 20260503193509 | 80 | 136 | 3.0 | 10.0 | 0.00 | 0.00 | 0.00 | 44 | 1019.7 |
| 20260503193009 | 80 | 136 | 4.0 | 12.0 | 0.00 | 0.00 | 0.00 | 42 | 1019.8 |
| 20260503192508 | 80 | 127 | 9.0 | 13.0 | 0.00 | 0.00 | 0.00 | 44 | 1019.9 |
| 20260503192008 | 79 | 139 | 6.0 | 13.0 | 0.00 | 0.00 | 0.00 | 45 | 1020.0 |
| 20260503191509 | 79 | 121 | 6.0 | 12.0 | 0.00 | 0.00 | 0.00 | 46 | 1020.0 |
| 20260503191008 | 79 | 127 | 6.0 | 13.0 | 0.00 | 0.00 | 0.00 | 43 | 1020.0 |
| 20260503190508 | 79 | 87 | 5.0 | 9.0 | 0.00 | 0.00 | 0.00 | 42 | 1020.1 |
| 20260503190009 | 79 | 129 | 9.0 | 14.0 | 0.00 | 0.00 | 0.00 | 43 | 1020.3 |
| 20260503185508 | 80 | 144 | 6.0 | 13.0 | 0.00 | 0.00 | 0.00 | 43 | 1020.4 |
| 20260503184009 | 80 | 146 | 9.0 | 14.0 | 0.00 | 0.00 | 0.00 | 45 | 1020.5 |
| 20260503183508 | 80 | 154 | 9.0 | 13.0 | 0.00 | 0.00 | 0.00 | 42 | 1020.5 |
| 20260503183008 | 79 | 198 | 3.0 | 9.0 | 0.00 | 0.00 | 0.00 | 44 | 1020.7 |
| 20260503182508 | 79 | 183 | 7.0 | 12.0 | 0.00 | 0.00 | 0.00 | 43 | 1020.7 |